Location: *
(37.9274°S, 156.8578°W)
Time: 05:39:11
(UTC+00:00)

Daily predictions for brighter satellites

Satellite Brightness Start Highest point End
(mag) Time Altitude Azimuth Time Altitude Azimuth Time Altitude Azimuth
Cosmos 1943 3.6 03:37:24 10° S 03:42:53 44° ESE 03:48:18 10° NE
NOSS 3-2 (C) 4.4 03:35:01 10° NNW 03:44:05 69° ENE 03:52:12 10° SE
Cosmos 1605 Rocket 4.1 03:45:13 10° N 03:51:22 89° W 03:57:42 10° S
Cosmos 2058 Rocket 3.0 03:48:52 10° S 03:53:18 70° E 03:57:40 10° NNE
IRS-1C 4.5 03:48:13 10° S 03:53:37 73° WSW 03:58:56 10° NNW
SJ-11-01 4.3 03:52:02 10° SSE 03:56:47 73° ENE 04:01:30 10° N
Tiangong -0.9 03:54:20 10° W 03:57:20 42° NNW 04:00:20 10° NE
Cosmos 1844 4.2 03:52:54 10° N 03:58:10 41° ENE 04:03:25 10° SE
CENTAUR R/B 4.1 03:51:26 10° WNW 03:59:16 41° SW 04:05:53 10° SSE
SJ-6F 4.4 03:58:59 10° SSE 04:03:05 64° ENE 04:07:06 10° N
Okean 1-7 Rocket 4.2 03:59:19 10° NNE 04:03:17 34° E 04:07:19 10° SSE
Cosmos 1812 2.8 04:00:28 10° S 04:04:06 75° W 04:07:42 10° N
ARGOS 4.2 04:01:13 10° S 04:06:28 48° WSW 04:11:37 10° NW
Meteor 2-3 Rocket 4.0 04:02:40 10° NNE 04:08:06 48° E 04:13:31 10° SSE
Helios 1B rocket 4.4 04:09:27 10° E 04:09:27 10° E 04:09:53 10° ENE
PSLV R/B 3.6 04:08:07 10° SSE 04:12:20 54° E 04:16:28 10° N
SL-08 R/B 3.3 04:08:00 10° NNE 04:12:41 64° ESE 04:17:21 10° S
CZ-2D R/B 3.0 04:10:06 10° SSE 04:13:48 80° E 04:17:28 10° N
Cosmos 1812 Rocket 4.4 04:09:58 10° SSE 04:13:57 30° ESE 04:17:52 10° NE
Cosmos 1461 3.0 04:10:12 10° NNW 04:14:09 55° ENE 04:17:45 13° SE
Cosmos-2242 3.1 04:13:11 10° S 04:17:20 49° E 04:21:26 10° NNE
Meteor 2-2 Rocket 4.5 04:12:18 10° S 04:18:08 53° ESE 04:24:00 10° NNE
Cosmos 1602 Rocket 3.7 04:16:08 10° N 04:20:23 51° E 04:24:39 10° SSE
Spot 4 Rocket 4.0 04:15:21 10° SSE 04:20:34 72° ENE 04:25:42 10° N
Cosmos 2058 4.4 04:18:13 10° NNW 04:22:06 39° W 04:26:02 10° S
BlueWalker 3 3.8 04:20:06 10° W 04:23:13 22° SSW 04:26:11 11° SSE
ADEOS Rocket 4.4 04:26:51 14° ENE 04:26:51 14° ENE 04:28:56 10° NE
Cosmos 1825 Rocket 4.5 04:23:14 10° NE 04:26:52 26° E 04:28:34 20° SE
Cosmos 1544 3.5 04:26:21 10° NNW 04:29:01 45° W 04:31:44 10° S
Cosmos 1758 Rocket 3.4 04:24:44 10° N 04:29:02 77° E 04:33:25 10° S
NOSS 3-3 (A) 3.7 04:23:10 10° SSW 04:29:26 62° SE 04:34:47 10° NE
CORIOLIS 4.3 04:25:10 10° SSE 04:30:30 52° E 04:35:47 10° N
ASTRO E2 4.2 04:32:01 10° NW 04:34:51 23° N 04:36:33 16° NE
BREEZE-M R/B 3.2 04:32:22 10° NW 04:35:50 67° NE 04:39:33 23° ESE
Helios 1A 3.8 04:34:46 10° N 04:38:48 53° W 04:42:52 10° SSW
Cosmos 2150 Rocket 4.4 04:35:53 10° N 04:41:03 45° ENE 04:44:19 21° SE
SME Rocket 3.8 04:40:26 10° S 04:45:03 53° WSW 04:48:46 10° NNW
Cosmos 1818 3.4 04:40:21 10° SSW 04:45:44 73° ESE 04:51:07 10° NE
USA 238 DEB 4.0 04:38:19 10° NNW 04:46:23 90° WSW 04:53:00 15° SSE
USA 238 4.0 04:38:23 10° NNW 04:46:28 90° ENE 04:53:01 15° SSE
CZ-2C R/B 2.9 04:51:45 45° E 04:52:06 47° E 04:55:43 10° N
Meteor 2-8 Rocket 4.4 04:48:01 10° N 04:53:57 61° E 05:00:00 10° SSE
Cosmos 1782 3.3 04:51:31 10° SSW 04:55:22 59° W 04:59:07 10° N
Cosmos 1603 3.9 04:51:15 10° SSW 04:56:53 73° WNW 05:02:28 10° NNE
USA 215 3.3 04:52:26 21° SE 04:57:08 81° SW 05:03:43 10° NW
Cosmos 1271 Rocket 2.5 04:55:01 10° N 04:58:46 80° E 05:00:07 39° SSE
Cosmos 468 4.4 04:55:43 10° SSW 05:01:05 84° ESE 05:06:21 10° NNE
Cosmos 1933 3.5 04:58:15 10° SSW 05:02:15 70° W 05:06:11 10° N
NOSS 3-3 (C) 3.7 04:56:49 10° SW 05:02:54 80° WNW 05:08:06 10° NNE
Cosmos 2173 Rocket 4.3 04:57:27 10° NNW 05:03:32 68° W 05:09:45 10° S
Cosmos 2100 Rocket 4.4 04:57:24 10° NNW 05:03:34 66° W 05:09:53 10° S
Cosmos 2151 4.4 05:04:17 10° NNE 05:06:10 24° NNE 05:06:10 24° NNE
SL-4 R/B 3.5 05:05:50 10° SSW 05:07:08 19° SSW 05:07:08 19° SSW
BREEZE-M DEB (TANK) 2.6 05:06:08 10° WSW 05:09:06 76° SSE 05:10:40 43° ENE
Cosmos 2298 Rocket 3.9 05:04:58 10° NNW 05:10:18 85° ENE 05:13:01 30° SSE
SMAP 3.8 05:07:53 10° S 05:12:30 54° WSW 05:17:03 10° NNW
SL-08 R/B 4.4 05:07:51 10° N 05:14:04 75° E 05:20:27 10° S
ATLAS 5 CENTAUR R/B 4.2 05:09:01 10° NNE 05:12:15 19° NE 05:12:15 19° NE
Meteor 1-26 Rocket 4.4 05:12:25 10° S 05:18:19 81° W 05:24:19 10° N
Cosmos 1666 3.3 05:15:46 10° NNW 05:18:16 45° NNW 05:18:16 45° NNW
Cosmos 1725 Rocket 4.0 05:15:55 10° N 05:22:15 81° W 05:28:37 10° S
Cosmos 1867 3.8 05:17:20 10° NW 05:22:41 64° WSW 05:24:47 36° S
Meteor 1-31 Rocket 3.1 05:23:39 61° NW 05:23:39 61° NW 05:26:53 10° NNW
Cosmos 1844 Rocket 4.3 05:19:53 10° WNW 05:24:51 31° WSW 05:29:53 10° S
Meteor 2-6 Rocket 4.3 05:22:06 10° S 05:34:44 - NNE 05:27:39 60° ESE
USA 267 3.8 05:28:50 39° SSE 05:28:55 39° SSE 05:34:57 10° SSW
Helios 1B rocket 3.8 05:44:58 34° NW 05:44:58 34° NW 05:47:29 10° NNW
USA 184 4.2 05:14:21 10° NNW 05:52:48 88° WSW 05:56:45 39° SSE
Cosmos 1607 4.1 05:54:17 10° SSW 05:59:41 68° SW 05:59:41 68° SW
Tsikada Rocket 4.3 05:59:05 10° SSW 06:05:14 64° W 06:11:19 10° N
ADEOS Rocket 3.8 06:13:47 41° NW 06:13:47 41° NW 06:17:35 10° NNW
ATLAS 5 CENTAUR R/B 4.5 06:50:23 10° NW 06:53:07 25° NW 06:53:07 25° NW
